Weather History for Wilmington, NC

Change the Weather History Date:

Sunday, December 9, 2012

  Actual Average Record
Temperature  
Mean Temperature 62 °F 50 °F  
Max Temperature 73 °F 61 °F 78 °F (1943)
Min Temperature 50 °F 39 °F 17 °F (1882)
Degree Days  
Heating Degree Days 3 15  
Month to date heating degree days 64 127  
Since 1 July heating degree days 579 496  
Cooling Degree Days 0 0  
Month to date cooling degree days 0 0  
Year to date cooling degree days 2169 2037  
Growing Degree Days 12 (Base 50)    
Moisture  
Dew Point 56 °F    
Average Humidity 83    
Maximum Humidity 97    
Minimum Humidity 68    
Precipitation  
Precipitation T in 0.11 in 2.47 in (1989)
Month to date precipitation 0.08 1.04  
Year to date precipitation 45.94 55.03  
Snow  
Snow 0.00 in 0.10 in T in (1937)
Month to date snowfall 0.0 0.1  
Since 1 July snowfall 0.0 0.1  
Snow Depth 0.00 in    
Sea Level Pressure  
Sea Level Pressure 30.10 in    
Wind  
Wind Speed 4 mph (SE)    
Max Wind Speed 10 mph    
Max Gust Speed -    
Visibility 8 miles    
Events      
T = Trace of Precipitation, MM = Missing Value Source: NWS Daily Summary

Daily Weather History Graph

Daily Weather History Graph

Search for Another Location

Airport:

Trip Planner

Search our weather history database for the weather conditions in past years. The results will help you decide how hot, cold, wet, or windy it might be!

Date:

Astronomy

Dec. 09, 2012 Rise Set
Actual Time 7:06 AM EST 5:01 PM EST
Civil Twilight 6:38 AM EST 5:29 PM EST
Nautical Twilight 6:07 AM EST 6:00 PM EST
Astronomical Twilight 5:36 AM EST 6:31 PM EST
Moon 2:45 AM EST (12/9) 2:00 PM EST (12/9)
Length of Visible Light 10h 50m
Length of Day
9h 55m
Waning Crescent, 19% of the Moon is Illuminated
Dec 9
Waning Crescent
Dec 13
New
Dec 20
First Quarter
Dec 28
Full
Jan 4
Last Quarter

Hourly Weather History & Observations

Time (EST) Temp. Dew Point Humidity Pressure Visibility Wind Dir Wind Speed Gust Speed Precip Events Conditions
12:53 AM 53.1 °F 52.0 °F 96% 30.09 in 5.0 mi Calm Calm - N/A   Partly Cloudy
1:46 AM 53.6 °F 51.8 °F 94% 30.09 in 2.5 mi Calm Calm - N/A   Overcast
1:53 AM 53.1 °F 52.0 °F 96% 30.09 in 4.0 mi Calm Calm - N/A   Overcast
2:07 AM 53.6 °F 51.8 °F 94% 30.10 in 1.5 mi Calm Calm - N/A   Mostly Cloudy
2:14 AM 53.6 °F 51.8 °F 94% 30.10 in 1.0 mi Calm Calm - N/A   Mostly Cloudy
2:19 AM 51.8 °F 51.8 °F 100% 30.10 in 2.0 mi Calm Calm - N/A   Mostly Cloudy
2:27 AM 51.8 °F 51.8 °F 100% 30.10 in 5.0 mi Calm Calm - N/A   Mostly Cloudy
2:43 AM 53.6 °F 51.8 °F 94% 30.10 in 2.5 mi Calm Calm - N/A   Mostly Cloudy
2:53 AM 53.1 °F 51.1 °F 93% 30.10 in 10.0 mi Calm Calm - N/A   Mostly Cloudy
3:07 AM 51.8 °F 50.0 °F 94% 30.10 in 1.8 mi Calm Calm - N/A   Mostly Cloudy
3:17 AM 51.8 °F 51.8 °F 100% 30.10 in 3.0 mi Calm Calm - N/A   Overcast
3:53 AM 52.0 °F 50.0 °F 93% 30.10 in 8.0 mi Calm Calm - N/A   Overcast
4:53 AM 51.1 °F 50.0 °F 96% 30.11 in 8.0 mi Calm Calm - N/A   Overcast
5:53 AM 50.0 °F 48.0 °F 93% 30.12 in 8.0 mi Calm Calm - N/A   Partly Cloudy
6:53 AM 51.1 °F 48.9 °F 92% 30.13 in 6.0 mi NW 3.5 mph - N/A   Clear
7:53 AM 53.1 °F 51.1 °F 93% 30.15 in 9.0 mi Calm Calm - N/A   Mostly Cloudy
8:53 AM 60.1 °F 57.0 °F 90% 30.16 in 8.0 mi Calm Calm - N/A   Clear
9:53 AM 68.0 °F 60.1 °F 76% 30.17 in 10.0 mi Calm Calm - N/A   Clear
10:53 AM 71.1 °F 61.0 °F 70% 30.16 in 10.0 mi SE 5.8 mph - N/A   Clear
11:53 AM 71.1 °F 61.0 °F 70% 30.14 in 10.0 mi ESE 9.2 mph - N/A   Clear
12:53 PM 72.0 °F 61.0 °F 68% 30.11 in 10.0 mi SE 6.9 mph - N/A   Mostly Cloudy
1:53 PM 72.0 °F 61.0 °F 68% 30.09 in 10.0 mi ESE 6.9 mph - N/A   Scattered Clouds
2:53 PM 72.0 °F 63.0 °F 73% 30.09 in 10.0 mi ESE 6.9 mph - N/A   Mostly Cloudy
3:53 PM 69.1 °F 62.1 °F 78% 30.09 in 10.0 mi ESE 6.9 mph - N/A   Clear
4:53 PM 66.0 °F 61.0 °F 84% 30.09 in 10.0 mi ESE 6.9 mph - N/A   Clear
5:53 PM 64.0 °F 59.0 °F 84% 30.09 in 10.0 mi ESE 4.6 mph - N/A   Clear
6:53 PM 63.0 °F 57.9 °F 84% 30.08 in 10.0 mi East 4.6 mph - N/A   Clear
7:53 PM 59.0 °F 57.0 °F 93% 30.07 in 10.0 mi Calm Calm - N/A   Clear
8:53 PM 61.0 °F 59.0 °F 93% 30.07 in 10.0 mi ESE 3.5 mph - N/A   Overcast
9:53 PM 68.0 °F 63.0 °F 84% 30.05 in 10.0 mi SSE 6.9 mph - N/A   Overcast
10:53 PM 66.9 °F 64.0 °F 90% 30.04 in 10.0 mi SSE 6.9 mph - 0.00 in   Overcast
11:53 PM 68.0 °F 64.9 °F 90% 30.01 in 10.0 mi SSE 8.1 mph - 0.00 in   Overcast